STARLINK-4768, 53806

Orbit data source: Space-Track

STARLINK-4768, 53806 is a payload satellite owned by SpaceX/Seattle (US) in LEO that was launched on Sun, 11 Sep 2022 UTC via an FALCON 9 launch vehicle from the Air Force Eastern Test Range (AFETR). Payload-class satellites include a variety of spacecraft equipped with specific instruments for various scientific and technological missions. These include communications satellites like Starlink; space stations such as the ISS; scientific satellites like the Hubble; Earth observation satellites from companies like Planet Labs, Umbra, and HawkEye 360; GPS; miniature CubeSats for education and research; and military/defense satellites.

Loading next visibility...
Identifier
53806, 2022-111AK
Orbit
LEO
Last TLE update
17 hours ago
Origin
Manufacturer
SpaceX/Seattle
Mission
Operational Commercial Communications
Bus & Motor
STARLINK, Unknown motor
Mass
305 kg wet, ~290 kg dry
Launch date (UTC)
2022-09-11 (3 years ago)
Launch vehicle
FALCON 9
Launch site
Air Force Eastern Test Range (AFETR)
Object type
Payload
Rocket body
Debris
Shape & HBR
Box + 1 Pan, 8.86 m
Radar Cross Section
13.562 m², Large (>1 m²)

Expand to show TLE details & history

TLE from 17 hours ago
0 STARLINK-4768
1 53806U 22111AK  25181.74387264  .00000350  00000-0  40099-4 0  9991
2 53806  53.2183 299.9944 0001102  88.9002 271.2116 15.08840878155991
Epoch: 2025-06-30T17:51Z
TLE epoch observation values (Epoch: 2025-06-30T17:51:10.596Z)
Latitude
-0.00004°
Longitude
113.15093°
Altitude
540.622 km
Speed
7.593 km/s
True Right ascension
19h 59m 58s
True Declination
0° 00' 00"
Sunlit
Object was in full shadow at epoch
Visualization orbit readout
Latitude
-2.23471°
Longitude
-68.3116°
Altitude
540.976 km
Speed
7.593 km/s
Apparent Right ascension
08h 50m 53s
Apparent Declination
-21° 00' 27"
Sunlit
Object is in daylight
Visualization observer readout
Local Sidereal Time
22:11:52
Azimuth
48.373° ENE
Elevation
-64.397°
Doppler factor
1
Orbital elements
Apogee altitude
540.748 km
Perigee altitude
539.223 km
Semi-major axis
6,918.123 km
Eccentricity
0.00011
Inclination
53.2183°
RAAN
299.9944°
Arg. of periapsis
88.9002°
True anomaly
Unknown
Mean anomaly
271.2116°
Eccentric anomaly
Unknown
Mean motion
3.77191 °/min
Orbital period
95.44 mins
BSTAR
0.000040099
Loading maneuver chart data...
Loading SW <> Apogee altitude chart data...
Loading historical data...
Loading historical data...
Loading historical data...
Loading historical data...
Loading historical data...
Loading historical data...
Loading historical data...

STARLINK-4768 Visibility forecast

Observer location: undefined°, undefined°

Span
Click to sort rows by Start time (UTC) header in descending order
Start Az.
Max El. time (UTC)
Max El. Az.
Max El.
End time (UTC)
End Az.
7 mins2025-07-01 11:33:23.948Z263.984° W2025-07-01 11:36:23.948Z317.738° NNW29.768°2025-07-01 11:40:23.948Z36.224° NE
6 mins2025-07-01 16:35:23.948Z331.051° NNW2025-07-01 16:38:23.948Z44.678° NE30.666°2025-07-01 16:41:23.948Z98.048° ESE
5 mins2025-07-01 18:15:23.948Z275.855° WNW2025-07-01 18:17:23.948Z226.248° WSW28.163°2025-07-01 18:20:23.948Z168.635° S
6 mins2025-07-02 09:46:23.948Z196.146° SSW2025-07-02 09:48:23.948Z145.272° SSE35.125°2025-07-02 09:52:23.948Z61.482° ENE
|